Location: Zagreb
(45.8000°N, 16.0000°E)
Time: 02:59:28
(UTC+02:00)

Altair - All Passes

Search period start: 08 August 2022 00:00
Search period end: 18 August 2022 00:00
Orbit: 1502 x 1682 km, 47.2° (Epoch: 07 August)

Date Brightness Start Highest point End Pass type
(mag) Time Alt. Az. Time Alt. Az. Time Alt. Az.
08 Aug - 00:18:37 10° W 00:28:08 82° N 00:37:23 10° E visible
08 Aug - 02:23:37 10° WNW 02:32:52 71° SSW 02:41:57 10° SE visible
08 Aug - 04:28:59 10° WNW 04:36:23 28° SW 04:43:46 10° S visible
08 Aug - 19:45:38 10° SSW 19:54:08 35° SE 20:02:22 10° ENE daylight
08 Aug - 21:48:22 10° WSW 21:58:01 78° SSE 22:07:21 10° ENE visible
08 Aug - 23:53:22 10° W 00:02:55 82° N 00:12:11 10° E visible
09 Aug - 01:58:25 10° WNW 02:07:43 74° SSW 02:16:50 10° ESE visible
09 Aug - 04:03:40 10° WNW 04:11:20 31° SW 04:18:59 10° SSE visible
09 Aug - 19:20:44 10° SSW 19:29:03 33° SE 19:37:06 10° ENE daylight
09 Aug - 21:23:11 10° WSW 21:32:51 75° SSE 21:42:11 10° ENE visible
09 Aug - 23:28:07 10° W 23:37:43 82° N 23:47:00 10° E visible
10 Aug - 01:33:12 10° WNW 01:42:34 77° SSW 01:51:43 10° ESE visible
10 Aug - 03:38:22 10° WNW 03:46:17 33° SW 03:54:09 10° SSE visible
10 Aug - 18:55:52 10° S 19:03:58 30° SE 19:11:50 10° ENE daylight
10 Aug - 20:58:00 10° SW 21:07:40 72° SSE 21:17:00 10° ENE visible
10 Aug - 23:02:52 10° W 23:12:30 82° N 23:21:48 10° E visible
11 Aug - 01:07:59 10° WNW 01:17:24 80° SSW 01:26:35 10° ESE visible
11 Aug - 03:13:06 10° WNW 03:21:14 36° SW 03:29:17 10° SSE visible
11 Aug - 18:31:03 10° S 18:38:54 28° SE 18:46:31 10° E daylight
11 Aug - 20:32:50 10° SW 20:42:31 69° SSE 20:51:50 10° ENE visible
11 Aug - 22:37:37 10° W 22:47:17 83° N 22:56:37 10° E visible
12 Aug - 00:42:46 10° WNW 00:52:14 83° SSW 01:01:26 10° ESE visible
12 Aug - 02:47:50 10° WNW 02:56:10 39° SW 03:04:23 10° SSE visible
12 Aug - 18:06:15 10° S 18:13:49 26° SE 18:21:11 10° E daylight
12 Aug - 20:07:41 10° SW 20:17:22 66° SSE 20:26:40 10° ENE daylight
12 Aug - 22:12:22 10° W 22:22:04 83° N 22:31:26 10° E visible
13 Aug - 00:17:33 10° WNW 00:27:04 85° SSW 00:36:17 10° ESE visible
13 Aug - 02:22:34 10° WNW 02:31:05 42° SW 02:39:28 10° SSE visible
13 Aug - 04:32:18 10° WSW 04:33:41 10° WSW 04:35:05 10° SW visible
13 Aug - 17:41:31 10° S 17:48:46 23° SE 17:55:48 10° E daylight
13 Aug - 19:42:33 10° SW 19:52:11 62° SSE 20:01:29 10° ENE daylight
13 Aug - 21:47:06 10° W 21:56:52 84° N 22:06:14 10° E visible
13 Aug - 23:52:19 10° WNW 00:01:53 87° SSW 00:11:07 10° ESE visible
14 Aug - 01:57:19 10° WNW 02:06:00 45° SW 02:14:31 10° SSE visible
14 Aug - 04:05:33 10° WSW 04:08:42 12° WSW 04:11:52 10° SW visible
14 Aug - 17:16:51 10° S 17:23:42 21° SE 17:30:23 10° E daylight
14 Aug - 19:17:26 10° SW 19:27:03 59° SSE 19:36:18 10° ENE daylight
14 Aug - 21:21:51 10° W 21:31:39 86° N 21:41:04 10° E visible
14 Aug - 23:27:05 10° WNW 23:36:42 90° SSW 23:45:58 10° ESE visible
15 Aug - 01:32:05 10° WNW 01:40:55 48° SW 01:49:33 10° SSE visible
15 Aug - 03:39:32 10° W 03:43:43 14° WSW 03:47:53 10° SSW visible
15 Aug - 16:52:14 10° SSE 16:58:39 19° SE 17:04:55 10° E daylight
15 Aug - 18:52:20 10° SW 19:01:54 56° SE 19:11:08 10° ENE daylight
15 Aug - 20:56:36 10° WSW 21:06:26 87° N 21:15:53 10° E visible
15 Aug - 23:01:51 10° WNW 23:11:30 89° NNE 23:20:48 10° ESE visible
16 Aug - 01:06:51 10° WNW 01:15:49 51° SW 01:24:34 10° SE visible
16 Aug - 03:13:46 10° W 03:18:43 16° SW 03:23:39 10° SSW visible
16 Aug - 16:27:43 10° SSE 16:33:36 18° SE 16:39:22 10° E daylight
16 Aug - 18:27:15 10° SW 18:36:45 53° SE 18:45:56 10° ENE daylight
16 Aug - 20:31:22 10° WSW 20:41:13 89° N 20:50:42 10° ENE visible
16 Aug - 22:36:36 10° W 22:46:18 87° NNE 22:55:38 10° ESE visible
17 Aug - 00:41:37 10° WNW 00:50:43 55° SW 00:59:33 10° SE visible
17 Aug - 02:48:08 10° W 02:53:43 18° SW 02:59:15 10° SSW visible
17 Aug - 16:03:19 10° SSE 16:08:34 16° SE 16:13:44 10° E daylight
17 Aug - 18:02:11 10° SW 18:11:37 50° SE 18:20:44 10° ENE daylight
17 Aug - 20:06:07 10° WSW 20:16:01 90° SSE 20:25:31 10° ENE daylight
17 Aug - 22:11:21 10° W 22:21:05 86° N 22:30:27 10° E visible
